20040715,000011,181467,31.220167,-120.833333,NaN,16.346,33.058,42.046,  NaN,0.0, NaN, NaN, NaN, NaN,24.176,373.273,15.90,1015.31,87.50,NaN,65.0,NaN,6.2,NaN,359.8,NaN,6.2,NaN,NaN, NaN,NaN,238.0,NaN,NaN,NaN,2,10.5,000009,   NaN,243.7,     NaN,      NaN,NaN,11.4,NaN,16.350, NaN,NaN,NaN, NaN, NaN
20040715,000041,181497,31.219500,-120.834667,NaN,16.335,33.057,42.034,  NaN,0.0, NaN, NaN, NaN, NaN,24.178,373.105,15.90,1015.35,87.60,NaN,75.0,NaN,5.5,NaN,8.9,NaN,6.6,NaN,NaN, NaN,NaN,238.0,NaN,NaN,NaN,2,10.5,000039,   NaN,242.1,     NaN,      NaN,NaN,11.1,NaN,16.339, NaN,NaN,NaN, NaN, NaN
20040715,000111,181527,31.218667,-120.836167,NaN,16.317,33.058,42.019,  NaN,0.0, NaN, NaN, NaN, NaN,24.182,372.665,16.00,1015.28,87.40,NaN,80.0,NaN,5.0,NaN,14.6,NaN,6.7,NaN,NaN, NaN,NaN,238.0,NaN,NaN,NaN,2,10.5,000069,   NaN,241.6,     NaN,      NaN,NaN,11.1,NaN,16.321, NaN,NaN,NaN, NaN, NaN
20040715,000141,181557,31.218000,-120.837667,NaN,16.268,33.054,41.968,  NaN,0.0, NaN, NaN, NaN, NaN,24.191,371.876,16.00,1015.12,88.10,NaN,72.0,NaN,6.3,NaN,1.9,NaN,6.9,NaN,NaN, NaN,NaN,236.0,NaN,NaN,NaN,2,10.6,000099,   NaN,241.4,     NaN,      NaN,NaN,11.1,NaN,16.272, NaN,NaN,NaN, NaN, NaN
20040715,000211,181587,31.217167,-120.839167,NaN,16.256,33.050,41.952,  NaN,0.0, NaN, NaN, NaN, NaN,24.190,371.915,16.00,1015.24,87.60,NaN,72.0,NaN,5.9,NaN,3.6,NaN,6.6,NaN,NaN, NaN,NaN,238.0,NaN,NaN,NaN,2,10.5,000129,   NaN,241.2,     NaN,      NaN,NaN,11.4,NaN,16.260, NaN,NaN,NaN, NaN, NaN
20040715,000241,181617,31.216500,-120.840500,NaN,16.298,33.050,41.991,  NaN,0.0, NaN, NaN, NaN, NaN,24.180,372.841,16.00,1015.48,88.00,NaN,73.0,NaN,4.0,NaN,18.3,NaN,5.7,NaN,NaN, NaN,NaN,239.0,NaN,NaN,NaN,2,10.4,000159,   NaN,240.5,     NaN,      NaN,NaN,11.3,NaN,16.302, NaN,NaN,NaN, NaN, NaN
20040715,000311,181647,31.215667,-120.842000,NaN,16.291,33.051,41.986,  NaN,0.0, NaN, NaN, NaN, NaN,24.183,372.635,16.20,1015.37,88.00,NaN,61.0,NaN,5.8,NaN,358.6,NaN,5.7,NaN,NaN, NaN,NaN,237.0,NaN,NaN,NaN,2,10.6,000189,   NaN,241.2,     NaN,      NaN,NaN,11.2,NaN,16.295, NaN,NaN,NaN, NaN, NaN
20040715,000341,181677,31.215000,-120.843500,NaN,16.243,33.035,41.922,  NaN,0.0, NaN, NaN, NaN, NaN,24.181,372.790,16.00,1015.29,88.40,NaN,68.0,NaN,6.4,NaN,358.0,NaN,6.7,NaN,NaN, NaN,NaN,238.0,NaN,NaN,NaN,2,10.5,000219,   NaN,240.6,     NaN,      NaN,NaN,11.4,NaN,16.247, NaN,NaN,NaN, NaN, NaN
20040715,000411,181707,31.214167,-120.844833,NaN,16.235,33.026,41.905,  NaN,0.0, NaN, NaN, NaN, NaN,24.176,373.224,16.00,1015.24,88.10,NaN,50.0,NaN,5.5,NaN,355.6,NaN,4.6,NaN,NaN, NaN,NaN,238.0,NaN,NaN,NaN,2,10.4,000249,   NaN,242.4,     NaN,      NaN,NaN,11.3,NaN,16.239, NaN,NaN,NaN, NaN, NaN
20040715,000441,181737,31.213500,-120.846333,NaN,16.202,33.011,41.857,  NaN,0.0, NaN, NaN, NaN, NaN,24.172,373.625,15.90,1015.17,87.40,NaN,66.0,NaN,6.0,NaN,359.7,NaN,6.2,NaN,NaN, NaN,NaN,237.0,NaN,NaN,NaN,2,10.4,000279,   NaN,241.5,     NaN,      NaN,NaN,11.2,NaN,16.206, NaN,NaN,NaN, NaN, NaN
20040715,000511,181767,31.212667,-120.847833,NaN,16.172,32.998,41.813,  NaN,0.0, NaN, NaN, NaN, NaN,24.169,373.886,16.00,1015.24,87.80,NaN,70.0,NaN,6.2,NaN,1.8,NaN,6.6,NaN,NaN, NaN,NaN,237.0,NaN,NaN,NaN,2,10.5,000309,   NaN,242.6,     NaN,      NaN,NaN,11.2,NaN,16.176, NaN,NaN,NaN, NaN, NaN
20040715,000541,181797,31.212000,-120.849167,NaN,16.162,32.996,41.802,  NaN,0.0, NaN, NaN, NaN, NaN,24.170,373.827,16.20,1015.29,88.40,NaN,72.0,NaN,5.6,NaN,5.5,NaN,6.4,NaN,NaN, NaN,NaN,236.0,NaN,NaN,NaN,2,10.5,000339,   NaN,241.4,     NaN,      NaN,NaN,11.2,NaN,16.166, NaN,NaN,NaN, NaN, NaN
20040715,000611,181827,31.211167,-120.850667,NaN,16.171,32.988,41.801,  NaN,0.0, NaN, NaN, NaN, NaN,24.162,374.611,16.00,1015.15,87.80,NaN,64.0,NaN,4.0,NaN,16.6,NaN,5.1,NaN,NaN, NaN,NaN,236.0,NaN,NaN,NaN,2,10.5,000369,   NaN,241.0,     NaN,      NaN,NaN,11.0,NaN,16.175, NaN,NaN,NaN, NaN, NaN
20040715,000641,181857,31.210333,-120.852167,NaN,16.168,32.988,41.797,  NaN,0.0, NaN, NaN, NaN, NaN,24.162,374.578,16.00,1015.32,87.90,NaN,74.0,NaN,3.4,NaN,24.6,NaN,5.6,NaN,NaN, NaN,NaN,238.0,NaN,NaN,NaN,2,10.6,000399,   NaN,241.3,     NaN,      NaN,NaN,11.3,NaN,16.172, NaN,NaN,NaN, NaN, NaN
20040715,000711,181887,31.209667,-120.853500,NaN,16.171,32.987,41.800,  NaN,0.0, NaN, NaN, NaN, NaN,24.161,374.680,16.00,1015.31,87.90,NaN,66.0,NaN,6.6,NaN,356.1,NaN,6.6,NaN,NaN, NaN,NaN,240.0,NaN,NaN,NaN,2,10.5,000429,   NaN,241.3,     NaN,      NaN,NaN,11.1,NaN,16.175, NaN,NaN,NaN, NaN, NaN
20040715,000741,181917,31.208833,-120.855000,NaN,16.178,32.989,41.809,  NaN,0.0, NaN, NaN, NaN, NaN,24.161,374.720,16.20,1015.28,88.00,NaN,70.0,NaN,6.3,NaN,0.3,NaN,6.8,NaN,NaN, NaN,NaN,239.0,NaN,NaN,NaN,2,10.6,000459,   NaN,241.0,     NaN,      NaN,NaN,11.5,NaN,16.182, NaN,NaN,NaN, NaN, NaN
20040715,000811,181947,31.208167,-120.856500,NaN,16.170,32.987,41.799,  NaN,0.0, NaN, NaN, NaN, NaN,24.162,374.639,16.20,1015.32,88.00,NaN,74.0,NaN,6.0,NaN,6.3,NaN,6.9,NaN,NaN, NaN,NaN,238.0,NaN,NaN,NaN,2,10.7,000489,   NaN,242.6,     NaN,      NaN,NaN,11.4,NaN,16.174, NaN,NaN,NaN, NaN, NaN
20040715,000841,181977,31.207333,-120.858000,NaN,16.167,32.987,41.796,  NaN,0.0, NaN, NaN, NaN, NaN,24.162,374.580,16.00,1015.33,88.30,NaN,59.0,NaN,7.0,NaN,349.1,NaN,6.3,NaN,NaN, NaN,NaN,238.0,NaN,NaN,NaN,2,10.7,000519,   NaN,241.9,     NaN,      NaN,NaN,11.3,NaN,16.171, NaN,NaN,NaN, NaN, NaN
20040715,000911,182007,31.206667,-120.859333,NaN,16.171,32.986,41.798,  NaN,0.0, NaN, NaN, NaN, NaN,24.160,374.812,16.00,1015.27,88.00,NaN,69.0,NaN,5.0,NaN,10.3,NaN,6.0,NaN,NaN, NaN,NaN,238.0,NaN,NaN,NaN,2,10.7,000549,   NaN,241.7,     NaN,      NaN,NaN,11.2,NaN,16.175, NaN,NaN,NaN, NaN, NaN
20040715,000941,182037,31.205833,-120.860833,NaN,16.162,32.983,41.787,  NaN,0.0, NaN, NaN, NaN, NaN,24.160,374.798,16.00,1015.25,87.90,NaN,71.0,NaN,5.5,NaN,7.1,NaN,6.4,NaN,NaN, NaN,NaN,240.0,NaN,NaN,NaN,2,10.6,000579,   NaN,241.6,     NaN,      NaN,NaN,11.2,NaN,16.166, NaN,NaN,NaN, NaN, NaN
20040715,001011,182067,31.205000,-120.862333,NaN,16.152,32.982,41.776,  NaN,0.0, NaN, NaN, NaN, NaN,24.161,374.672,16.00,1015.36,87.80,NaN,69.0,NaN,6.7,NaN,357.5,NaN,7.0,NaN,NaN, NaN,NaN,239.0,NaN,NaN,NaN,2,10.7,000609,   NaN,241.0,     NaN,      NaN,NaN,11.3,NaN,16.156, NaN,NaN,NaN, NaN, NaN
20040715,001041,182097,31.204333,-120.863833,NaN,16.154,32.980,41.776,  NaN,0.0, NaN, NaN, NaN, NaN,24.159,374.871,16.00,1015.32,87.90,NaN,57.0,NaN,6.9,NaN,347.8,NaN,6.1,NaN,NaN, NaN,NaN,239.0,NaN,NaN,NaN,2,10.8,000639,   NaN,241.3,     NaN,      NaN,NaN,11.0,NaN,16.158, NaN,NaN,NaN, NaN, NaN
20040715,001111,182127,31.203500,-120.865333,NaN,16.167,32.978,41.785,  NaN,0.0, NaN, NaN, NaN, NaN,24.155,375.280,16.20,1015.34,88.00,NaN,66.0,NaN,6.6,NaN,358.3,NaN,6.6,NaN,NaN, NaN,NaN,239.0,NaN,NaN,NaN,2,10.7,000669,   NaN,243.1,     NaN,      NaN,NaN,11.3,NaN,16.171, NaN,NaN,NaN, NaN, NaN
20040715,001141,182157,31.202833,-120.866833,NaN,16.183,32.975,41.798,  NaN,0.0, NaN, NaN, NaN, NaN,24.149,375.812,16.00,1015.23,88.00,NaN,64.0,NaN,8.0,NaN,351.2,NaN,7.5,NaN,NaN, NaN,NaN,242.0,NaN,NaN,NaN,2,10.7,000699,   NaN,245.8,     NaN,      NaN,NaN,11.3,NaN,16.187, NaN,NaN,NaN, NaN, NaN
20040715,001211,182187,31.202167,-120.868333,NaN,16.208,32.972,41.818,  NaN,0.0, NaN, NaN, NaN, NaN,24.141,376.565,16.00,1015.26,88.30,NaN,61.0,NaN,8.1,NaN,349.2,NaN,7.3,NaN,NaN, NaN,NaN,241.0,NaN,NaN,NaN,2,10.7,000729,   NaN,246.8,     NaN,      NaN,NaN,11.3,NaN,16.212, NaN,NaN,NaN, NaN, NaN
20040715,001241,182217,31.201500,-120.869833,NaN,16.225,32.971,41.833,  NaN,0.0, NaN, NaN, NaN, NaN,24.136,377.024,16.20,1015.35,87.90,NaN,56.0,NaN,8.6,NaN,341.9,NaN,7.2,NaN,NaN, NaN,NaN,244.0,NaN,NaN,NaN,2,10.7,000759,   NaN,246.5,     NaN,      NaN,NaN,11.2,NaN,16.229, NaN,NaN,NaN, NaN, NaN
20040715,001311,182247,31.200833,-120.871500,NaN,16.236,32.971,41.842,  NaN,0.0, NaN, NaN, NaN, NaN,24.134,377.304,16.00,1015.19,87.90,NaN,69.0,NaN,8.9,NaN,351.9,NaN,8.6,NaN,NaN, NaN,NaN,242.0,NaN,NaN,NaN,2,10.7,000789,   NaN,246.0,     NaN,      NaN,NaN,11.1,NaN,16.239, NaN,NaN,NaN, NaN, NaN
20040715,001341,182277,31.200167,-120.873000,NaN,16.262,32.967,41.863,  NaN,0.0, NaN, NaN, NaN, NaN,24.125,378.097,16.00,1015.31,87.50,NaN,70.0,NaN,8.3,NaN,355.4,NaN,8.3,NaN,NaN, NaN,NaN,244.0,NaN,NaN,NaN,2,10.7,000819,   NaN,246.5,     NaN,      NaN,NaN,11.4,NaN,16.266, NaN,NaN,NaN, NaN, NaN
20040715,001411,182307,31.199500,-120.874500,NaN,16.273,32.968,41.874,  NaN,0.0, NaN, NaN, NaN, NaN,24.123,378.285,16.00,1015.32,88.10,NaN,60.0,NaN,8.0,NaN,347.7,NaN,7.1,NaN,NaN, NaN,NaN,245.0,NaN,NaN,NaN,2,10.5,000849,   NaN,246.4,     NaN,      NaN,NaN,10.9,NaN,16.276, NaN,NaN,NaN, NaN, NaN
20040715,001441,182337,31.198833,-120.876000,NaN,16.283,32.968,41.884,  NaN,0.0, NaN, NaN, NaN, NaN,24.121,378.542,16.00,1015.37,87.80,NaN,65.0,NaN,8.4,NaN,349.4,NaN,7.9,NaN,NaN, NaN,NaN,242.0,NaN,NaN,NaN,2,10.6,000879,   NaN,245.5,     NaN,      NaN,NaN,11.1,NaN,16.287, NaN,NaN,NaN, NaN, NaN
20040715,001511,182367,31.198167,-120.877500,NaN,16.279,32.970,41.883,  NaN,0.0, NaN, NaN, NaN, NaN,24.124,378.261,16.00,1015.42,87.60,NaN,67.0,NaN,7.4,NaN,356.3,NaN,7.2,NaN,NaN, NaN,NaN,241.0,NaN,NaN,NaN,2,10.6,000909,   NaN,245.4,     NaN,      NaN,NaN,11.3,NaN,16.283, NaN,NaN,NaN, NaN, NaN
20040715,001541,182397,31.197333,-120.879167,NaN,16.279,32.971,41.884,  NaN,0.0, NaN, NaN, NaN, NaN,24.124,378.196,16.20,1015.34,87.60,NaN,65.0,NaN,7.4,NaN,355.6,NaN,7.1,NaN,NaN, NaN,NaN,241.0,NaN,NaN,NaN,2,10.6,000939,   NaN,245.7,     NaN,      NaN,NaN,11.1,NaN,16.283, NaN,NaN,NaN, NaN, NaN
20040715,001611,182427,31.196667,-120.880667,NaN,16.291,32.969,41.893,  NaN,0.0, NaN, NaN, NaN, NaN,24.120,378.584,16.00,1015.42,87.40,NaN,67.0,NaN,7.5,NaN,357.3,NaN,7.3,NaN,NaN, NaN,NaN,244.0,NaN,NaN,NaN,2,10.6,000969,   NaN,247.0,     NaN,      NaN,NaN,11.2,NaN,16.295, NaN,NaN,NaN, NaN, NaN
20040715,001641,182457,31.196167,-120.882167,NaN,16.303,32.970,41.905,  NaN,0.0, NaN, NaN, NaN, NaN,24.118,378.794,16.00,1015.32,87.40,NaN,65.0,NaN,7.7,NaN,355.3,NaN,7.3,NaN,NaN, NaN,NaN,244.0,NaN,NaN,NaN,2,10.6,000999,   NaN,247.9,     NaN,      NaN,NaN,10.9,NaN,16.307, NaN,NaN,NaN, NaN, NaN
20040715,001711,182487,31.195500,-120.883667,NaN,16.298,32.973,41.904,  NaN,0.0, NaN, NaN, NaN, NaN,24.122,378.450,16.00,1015.35,87.40,NaN,58.0,NaN,7.5,NaN,353.4,NaN,6.5,NaN,NaN, NaN,NaN,244.0,NaN,NaN,NaN,2,10.6,001029,   NaN,250.1,     NaN,      NaN,NaN,11.1,NaN,16.302, NaN,NaN,NaN, NaN, NaN
20040715,001741,182517,31.194833,-120.885333,NaN,16.302,32.970,41.905,  NaN,0.0, NaN, NaN, NaN, NaN,24.118,378.751,16.00,1015.39,87.40,NaN,61.0,NaN,8.3,NaN,350.7,NaN,7.4,NaN,NaN, NaN,NaN,246.0,NaN,NaN,NaN,2,10.5,001059,   NaN,249.7,     NaN,      NaN,NaN,11.4,NaN,16.306, NaN,NaN,NaN, NaN, NaN
20040715,001811,182547,31.194333,-120.886833,NaN,16.319,32.970,41.920,  NaN,0.0, NaN, NaN, NaN, NaN,24.114,379.187,16.20,1015.37,87.60,NaN,71.0,NaN,8.7,NaN,357.4,NaN,8.6,NaN,NaN, NaN,NaN,247.0,NaN,NaN,NaN,2,10.5,001089,   NaN,250.0,     NaN,      NaN,NaN,11.3,NaN,16.323, NaN,NaN,NaN, NaN, NaN
20040715,001841,182577,31.193667,-120.888333,NaN,16.343,32.967,41.939,  NaN,0.0, NaN, NaN, NaN, NaN,24.107,379.877,16.20,1015.38,88.10,NaN,59.0,NaN,5.5,NaN,8.4,NaN,5.4,NaN,NaN, NaN,NaN,243.0,NaN,NaN,NaN,2,10.5,001119,   NaN,249.9,     NaN,      NaN,NaN,11.3,NaN,16.346, NaN,NaN,NaN, NaN, NaN
20040715,001911,182607,31.193167,-120.889833,NaN,16.354,32.965,41.947,  NaN,0.0, NaN, NaN, NaN, NaN,24.102,380.287,16.00,1015.44,87.40,NaN,72.0,NaN,7.3,NaN,3.6,NaN,7.6,NaN,NaN, NaN,NaN,246.0,NaN,NaN,NaN,2,10.4,001149,   NaN,248.5,     NaN,      NaN,NaN,11.3,NaN,16.358, NaN,NaN,NaN, NaN, NaN
20040715,001941,182637,31.192500,-120.891500,NaN,16.365,32.964,41.957,  NaN,0.0, NaN, NaN, NaN, NaN,24.099,380.588,16.00,1015.43,87.60,NaN,57.0,NaN,6.9,NaN,355.5,NaN,6.0,NaN,NaN, NaN,NaN,245.0,NaN,NaN,NaN,2,10.5,001179,   NaN,250.0,     NaN,      NaN,NaN,11.3,NaN,16.369, NaN,NaN,NaN, NaN, NaN
20040715,002011,182667,31.192000,-120.893000,NaN,16.382,32.960,41.968,  NaN,0.0, NaN, NaN, NaN, NaN,24.093,381.231,16.00,1015.29,87.80,NaN,65.0,NaN,6.7,NaN,1.7,NaN,6.6,NaN,NaN, NaN,NaN,245.0,NaN,NaN,NaN,2,10.4,001209,   NaN,250.2,     NaN,      NaN,NaN,11.2,NaN,16.386, NaN,NaN,NaN, NaN, NaN
20040715,002041,182697,31.191333,-120.894500,NaN,16.395,32.958,41.978,  NaN,0.0, NaN, NaN, NaN, NaN,24.088,381.702,16.00,1015.25,88.00,NaN,66.0,NaN,6.8,NaN,2.0,NaN,6.8,NaN,NaN, NaN,NaN,246.0,NaN,NaN,NaN,2,10.4,001239,   NaN,249.3,     NaN,      NaN,NaN,11.2,NaN,16.400, NaN,NaN,NaN, NaN, NaN
20040715,002111,182727,31.190667,-120.896000,NaN,16.389,32.955,41.969,  NaN,0.0, NaN, NaN, NaN, NaN,24.087,381.791,16.00,1015.39,87.90,NaN,71.0,NaN,7.0,NaN,2.6,NaN,7.3,NaN,NaN, NaN,NaN,245.0,NaN,NaN,NaN,2,10.5,001269,   NaN,248.2,     NaN,      NaN,NaN,11.2,NaN,16.393, NaN,NaN,NaN, NaN, NaN
20040715,002141,182757,31.190167,-120.897500,NaN,16.402,32.954,41.980,  NaN,0.0, NaN, NaN, NaN, NaN,24.083,382.131,16.00,1015.32,87.80,NaN,64.0,NaN,7.5,NaN,356.5,NaN,7.0,NaN,NaN, NaN,NaN,245.0,NaN,NaN,NaN,2,10.6,001299,   NaN,248.9,     NaN,      NaN,NaN,11.3,NaN,16.406, NaN,NaN,NaN, NaN, NaN
20040715,002211,182787,31.189500,-120.899167,NaN,16.434,32.952,42.008,  NaN,0.0, NaN, NaN, NaN, NaN,24.074,382.948,16.00,1015.30,88.10,NaN,63.0,NaN,6.7,NaN,0.6,NaN,6.4,NaN,NaN, NaN,NaN,244.0,NaN,NaN,NaN,2,10.6,001329,   NaN,249.3,     NaN,      NaN,NaN,11.3,NaN,16.438, NaN,NaN,NaN, NaN, NaN
20040715,002241,182817,31.188833,-120.900667,NaN,16.461,32.949,42.030,  NaN,0.0, NaN, NaN, NaN, NaN,24.066,383.779,16.00,1015.41,88.10,NaN,63.0,NaN,5.9,NaN,6.6,NaN,5.9,NaN,NaN, NaN,NaN,243.0,NaN,NaN,NaN,2,10.5,001359,   NaN,249.4,     NaN,      NaN,NaN,11.3,NaN,16.465, NaN,NaN,NaN, NaN, NaN
20040715,002311,182847,31.188333,-120.902167,NaN,16.455,32.946,42.021,  NaN,0.0, NaN, NaN, NaN, NaN,24.064,383.908,16.20,1015.36,88.40,NaN,60.0,NaN,6.4,NaN,3.1,NaN,5.9,NaN,NaN, NaN,NaN,245.0,NaN,NaN,NaN,2,10.5,001389,   NaN,251.7,     NaN,      NaN,NaN,11.3,NaN,16.459, NaN,NaN,NaN, NaN, NaN
20040715,002341,182877,31.187667,-120.903667,NaN,16.461,32.942,42.021,  NaN,0.0, NaN, NaN, NaN, NaN,24.060,384.294,16.20,1015.42,87.90,NaN,65.0,NaN,7.0,NaN,0.8,NaN,6.8,NaN,NaN, NaN,NaN,247.0,NaN,NaN,NaN,2,10.5,001419,   NaN,250.0,     NaN,      NaN,NaN,11.2,NaN,16.465, NaN,NaN,NaN, NaN, NaN
20040715,002411,182907,31.187167,-120.905167,NaN,16.466,32.941,42.026,  NaN,0.0, NaN, NaN, NaN, NaN,24.058,384.502,16.00,1015.34,88.00,NaN,68.0,NaN,7.2,NaN,0.8,NaN,7.2,NaN,NaN, NaN,NaN,243.0,NaN,NaN,NaN,2,10.4,001449,   NaN,248.5,     NaN,      NaN,NaN,11.2,NaN,16.470, NaN,NaN,NaN, NaN, NaN
20040715,002441,182937,31.186500,-120.906833,NaN,16.495,32.939,42.050,  NaN,0.0, NaN, NaN, NaN, NaN,24.050,385.284,16.20,1015.39,88.30,NaN,68.0,NaN,4.9,NaN,16.9,NaN,5.8,NaN,NaN, NaN,NaN,246.0,NaN,NaN,NaN,2,10.4,001479,   NaN,248.7,     NaN,      NaN,NaN,11.3,NaN,16.499, NaN,NaN,NaN, NaN, NaN
20040715,002511,182967,31.185833,-120.908333,NaN,16.498,32.940,42.054,  NaN,0.0, NaN, NaN, NaN, NaN,24.050,385.295,16.20,1015.43,88.30,NaN,67.0,NaN,8.6,NaN,353.3,NaN,8.2,NaN,NaN, NaN,NaN,246.0,NaN,NaN,NaN,2,10.4,001509,   NaN,249.4,     NaN,      NaN,NaN,11.2,NaN,16.502, NaN,NaN,NaN, NaN, NaN
20040715,002541,182997,31.185333,-120.909833,NaN,16.510,32.938,42.063,  NaN,0.0, NaN, NaN, NaN, NaN,24.046,385.682,16.00,1015.31,87.60,NaN,69.0,NaN,7.4,NaN,0.3,NaN,7.4,NaN,NaN, NaN,NaN,245.0,NaN,NaN,NaN,2,10.2,001539,   NaN,249.1,     NaN,      NaN,NaN,11.2,NaN,16.514, NaN,NaN,NaN, NaN, NaN
20040715,002611,183027,31.184667,-120.911333,NaN,16.550,32.935,42.097,  NaN,0.0, NaN, NaN, NaN, NaN,24.034,386.785,16.00,1015.23,88.10,NaN,79.0,NaN,6.0,NaN,13.3,NaN,7.2,NaN,NaN, NaN,NaN,242.0,NaN,NaN,NaN,2,10.4,001569,   NaN,247.6,     NaN,      NaN,NaN,11.2,NaN,16.554, NaN,NaN,NaN, NaN, NaN
20040715,002641,183057,31.184000,-120.912833,NaN,16.587,32.935,42.133,  NaN,0.0, NaN, NaN, NaN, NaN,24.026,387.580,16.00,1015.29,88.10,NaN,75.0,NaN,6.2,NaN,7.3,NaN,7.0,NaN,NaN, NaN,NaN,244.0,NaN,NaN,NaN,2,10.4,001599,   NaN,245.0,     NaN,      NaN,NaN,11.1,NaN,16.591, NaN,NaN,NaN, NaN, NaN
20040715,002711,183087,31.183333,-120.914167,NaN,16.612,32.937,42.158,  NaN,0.0, NaN, NaN, NaN, NaN,24.022,387.973,16.20,1015.39,88.40,NaN,78.0,NaN,2.8,NaN,31.6,NaN,5.5,NaN,NaN, NaN,NaN,240.0,NaN,NaN,NaN,2,10.5,001629,   NaN,241.8,     NaN,      NaN,NaN,11.5,NaN,16.616, NaN,NaN,NaN, NaN, NaN
20040715,002741,183117,31.182500,-120.915667,NaN,16.644,32.936,42.188,  NaN,0.0, NaN, NaN, NaN, NaN,24.014,388.740,16.00,1015.24,88.30,NaN,78.0,NaN,5.4,NaN,8.8,NaN,6.8,NaN,NaN, NaN,NaN,236.0,NaN,NaN,NaN,2,10.4,001659,   NaN,239.8,     NaN,      NaN,NaN,11.3,NaN,16.648, NaN,NaN,NaN, NaN, NaN
20040715,002811,183147,31.181667,-120.917000,NaN,16.674,32.937,42.217,  NaN,0.0, NaN, NaN, NaN, NaN,24.008,389.317,16.20,1015.32,88.30,NaN,70.0,NaN,4.2,NaN,14.2,NaN,5.6,NaN,NaN, NaN,NaN,237.0,NaN,NaN,NaN,2,10.5,001689,   NaN,239.2,     NaN,      NaN,NaN,11.3,NaN,16.678, NaN,NaN,NaN, NaN, NaN
20040715,002841,183177,31.181000,-120.918500,NaN,16.692,32.937,42.235,  NaN,0.0, NaN, NaN, NaN, NaN,24.003,389.749,16.00,1015.27,87.90,NaN,76.0,NaN,3.8,NaN,23.3,NaN,5.8,NaN,NaN, NaN,NaN,237.0,NaN,NaN,NaN,2,10.5,001719,   NaN,242.2,     NaN,      NaN,NaN,11.3,NaN,16.697, NaN,NaN,NaN, NaN, NaN
20040715,002911,183207,31.180167,-120.919833,NaN,16.720,32.939,42.263,  NaN,0.0, NaN, NaN, NaN, NaN,23.998,390.221,16.20,1015.25,88.50,NaN,80.0,NaN,4.5,NaN,16.2,NaN,6.3,NaN,NaN, NaN,NaN,238.0,NaN,NaN,NaN,2,10.1,001749,   NaN,241.2,     NaN,      NaN,NaN,11.2,NaN,16.724, NaN,NaN,NaN, NaN, NaN
20040715,002941,183237,31.179500,-120.921167,NaN,16.736,32.940,42.279,  NaN,0.0, NaN, NaN, NaN, NaN,23.995,390.484,16.20,1015.37,88.60,NaN,82.0,NaN,4.4,NaN,9.5,NaN,5.6,NaN,NaN, NaN,NaN,239.0,NaN,NaN,NaN,2,8.1,001779,   NaN,240.5,     NaN,      NaN,NaN,8.7,NaN,16.740, NaN,NaN,NaN, NaN, NaN
20040715,003011,183267,31.179000,-120.922000,NaN,16.747,32.939,42.288,  NaN,0.0, NaN, NaN, NaN, NaN,23.992,390.850,16.30,1015.28,88.60,NaN,110.0,NaN,4.7,NaN,23.0,NaN,6.6,NaN,NaN, NaN,NaN,239.0,NaN,NaN,NaN,2,6.4,001809,   NaN,245.0,     NaN,      NaN,NaN,6.1,NaN,16.751, NaN,NaN,NaN, NaN, NaN
20040715,003041,183297,31.178667,-120.922833,NaN,16.757,32.938,42.296,  NaN,0.0, NaN, NaN, NaN, NaN,23.989,391.130,16.30,1015.30,88.90,NaN,90.0,NaN,4.3,NaN,9.5,NaN,5.1,NaN,NaN, NaN,NaN,237.0,NaN,NaN,NaN,2,5.1,001839,   NaN,248.2,     NaN,      NaN,NaN,4.6,NaN,16.761, NaN,NaN,NaN, NaN, NaN
20040715,003111,183327,31.178333,-120.923500,NaN,16.769,32.938,42.308,  NaN,0.0, NaN, NaN, NaN, NaN,23.987,391.340,16.30,1015.11,88.30,NaN,67.0,NaN,6.4,NaN,1.1,NaN,5.9,NaN,NaN, NaN,NaN,250.0,NaN,NaN,NaN,2,4.0,001869,   NaN,274.8,     NaN,      NaN,NaN,3.5,NaN,16.773, NaN,NaN,NaN, NaN, NaN
20040715,003141,183357,31.178333,-120.924000,NaN,16.774,32.938,42.313,  NaN,0.0, NaN, NaN, NaN, NaN,23.985,391.500,16.20,1015.24,88.30,NaN,36.0,NaN,6.9,NaN,353.5,NaN,5.9,NaN,NaN, NaN,NaN,269.0,NaN,NaN,NaN,2,2.6,001899,   NaN,309.9,     NaN,      NaN,NaN,2.4,NaN,16.778, NaN,NaN,NaN, NaN, NaN
20040715,003211,183387,31.178333,-120.924167,NaN,16.784,32.940,42.324,  NaN,0.0, NaN, NaN, NaN, NaN,23.984,391.602,16.30,1015.21,88.60,NaN,11.0,NaN,6.2,NaN,343.6,NaN,5.5,NaN,NaN, NaN,NaN,271.0,NaN,NaN,NaN,2,1.3,001929,   NaN,331.3,     NaN,      NaN,NaN,1.6,NaN,16.788, NaN,NaN,NaN, NaN, NaN
20040715,003241,183417,31.178333,-120.924333,NaN,16.786,32.940,42.326,  NaN,0.0, NaN, NaN, NaN, NaN,23.983,391.618,16.30,1015.28,88.10,NaN,2.0,NaN,6.6,NaN,345.8,NaN,6.3,NaN,NaN, NaN,NaN,265.0,NaN,NaN,NaN,2,0.6,001959,   NaN,343.7,     NaN,      NaN,NaN,0.9,NaN,16.790, NaN,NaN,NaN, NaN, NaN
20040715,003311,183447,31.178333,-120.924333,NaN,16.796,32.939,42.335,  NaN,0.0, NaN, NaN, NaN, NaN,23.981,391.879,16.30,1015.32,87.80,NaN,2.0,NaN,6.5,NaN,352.4,NaN,6.2,NaN,NaN, NaN,NaN,224.0,NaN,NaN,NaN,2,0.6,001989,   NaN,350.3,     NaN,      NaN,NaN,0.7,NaN,16.801, NaN,NaN,NaN, NaN, NaN
20040715,003341,183477,31.178333,-120.924500,NaN,16.799,32.940,42.338,  NaN,0.0, NaN, NaN, NaN, NaN,23.981,391.894,16.30,1015.37,88.00,NaN,351.0,NaN,5.7,NaN,348.1,NaN,5.4,NaN,NaN, NaN,NaN,221.0,NaN,NaN,NaN,2,0.6,002019,   NaN,357.5,     NaN,      NaN,NaN,0.3,NaN,16.803, NaN,NaN,NaN, NaN, NaN
20040715,003411,183507,31.178333,-120.924500,NaN,16.793,32.940,42.333,  NaN,0.0, NaN, NaN, NaN, NaN,23.982,391.755,16.40,1015.30,87.80,NaN,346.0,NaN,6.5,NaN,347.3,NaN,6.1,NaN,NaN, NaN,NaN,194.0,NaN,NaN,NaN,2,0.7,002049,   NaN,2.1,     NaN,      NaN,NaN,0.2,NaN,16.797, NaN,NaN,NaN, NaN, NaN
20040715,003441,183537,31.178167,-120.924500,NaN,16.793,32.940,42.333,  NaN,0.0, NaN, NaN, NaN, NaN,23.982,391.777,16.40,1015.31,88.00,NaN,0.0,NaN,5.0,NaN,6.3,NaN,4.7,NaN,NaN, NaN,NaN,197.0,NaN,NaN,NaN,2,0.6,002079,   NaN,6.3,     NaN,      NaN,NaN,0.1,NaN,16.797, NaN,NaN,NaN, NaN, NaN
20040715,003511,183567,31.178167,-120.924500,NaN,16.791,32.940,42.331,  NaN,0.0, NaN, NaN, NaN, NaN,23.983,391.714,16.60,1015.32,87.50,NaN,351.0,NaN,5.9,NaN,1.3,NaN,5.5,NaN,NaN, NaN,NaN,187.0,NaN,NaN,NaN,2,0.8,002109,   NaN,11.0,     NaN,      NaN,NaN,0.2,NaN,16.795, NaN,NaN,NaN, NaN, NaN
20040715,003541,183597,31.178000,-120.924667,NaN,16.790,32.939,42.329,  NaN,0.0, NaN, NaN, NaN, NaN,23.982,391.743,16.40,1015.43,87.50,NaN,347.0,NaN,6.6,NaN,5.1,NaN,6.1,NaN,NaN, NaN,NaN,182.0,NaN,NaN,NaN,2,0.9,002139,   NaN,19.2,     NaN,      NaN,NaN,0.0,NaN,16.794, NaN,NaN,NaN, NaN, NaN
20040715,003611,183627,31.177833,-120.924667,NaN,16.794,32.940,42.334,  NaN,0.0, NaN, NaN, NaN, NaN,23.981,391.816,16.30,1015.29,86.70,NaN,336.0,NaN,6.9,NaN,3.8,NaN,6.4,NaN,NaN, NaN,NaN,191.0,NaN,NaN,NaN,2,1.0,002169,   NaN,30.4,     NaN,      NaN,NaN,0.0,NaN,16.798, NaN,NaN,NaN, NaN, NaN
20040715,003641,183657,31.177667,-120.924500,NaN,16.801,32.939,42.340,  NaN,0.0, NaN, NaN, NaN, NaN,23.980,391.995,16.30,1015.27,86.90,NaN,320.0,NaN,6.9,NaN,4.0,NaN,6.5,NaN,NaN, NaN,NaN,182.0,NaN,NaN,NaN,2,1.2,002199,   NaN,47.5,     NaN,      NaN,NaN,0.0,NaN,16.805, NaN,NaN,NaN, NaN, NaN
20040715,003711,183687,31.177500,-120.924500,NaN,16.833,32.938,42.368,  NaN,0.0, NaN, NaN, NaN, NaN,23.971,392.810,16.30,1015.25,86.90,NaN,313.0,NaN,6.9,NaN,11.8,NaN,6.5,NaN,NaN, NaN,NaN,194.0,NaN,NaN,NaN,2,1.2,002229,   NaN,63.1,     NaN,      NaN,NaN,0.1,NaN,16.837, NaN,NaN,NaN, NaN, NaN
20040715,003741,183717,31.177167,-120.924500,NaN,16.841,32.941,42.379,  NaN,0.0, NaN, NaN, NaN, NaN,23.971,392.764,16.20,1015.34,86.60,NaN,299.0,NaN,5.1,NaN,2.1,NaN,4.8,NaN,NaN, NaN,NaN,176.0,NaN,NaN,NaN,2,1.5,002259,   NaN,70.7,     NaN,      NaN,NaN,0.3,NaN,16.845, NaN,NaN,NaN, NaN, NaN
20040715,003811,183747,31.177000,-120.924500,NaN,16.821,32.942,42.361,  NaN,0.0, NaN, NaN, NaN, NaN,23.977,392.248,16.30,1015.46,87.00,NaN,299.0,NaN,5.5,NaN,3.9,NaN,5.2,NaN,NaN, NaN,NaN,161.0,NaN,NaN,NaN,2,1.4,002289,   NaN,72.9,     NaN,      NaN,NaN,0.4,NaN,16.825, NaN,NaN,NaN, NaN, NaN
20040715,003841,183777,31.176833,-120.924500,NaN,16.803,32.941,42.344,  NaN,0.0, NaN, NaN, NaN, NaN,23.981,391.901,16.40,1015.37,87.10,NaN,295.0,NaN,5.1,NaN,358.4,NaN,4.8,NaN,NaN, NaN,NaN,156.0,NaN,NaN,NaN,2,1.5,002319,   NaN,71.7,     NaN,      NaN,NaN,0.4,NaN,16.807, NaN,NaN,NaN, NaN, NaN
20040715,003911,183807,31.176667,-120.924333,NaN,16.783,32.938,42.322,  NaN,0.0, NaN, NaN, NaN, NaN,23.983,391.673,16.60,1015.27,86.90,NaN,314.0,NaN,5.2,NaN,14.8,NaN,4.8,NaN,NaN, NaN,NaN,157.0,NaN,NaN,NaN,2,1.3,002349,   NaN,66.6,     NaN,      NaN,NaN,0.5,NaN,16.787, NaN,NaN,NaN, NaN, NaN
20040715,003941,183837,31.176500,-120.924167,NaN,16.777,32.938,42.315,  NaN,0.0, NaN, NaN, NaN, NaN,23.985,391.515,16.40,1015.39,86.70,NaN,319.0,NaN,5.3,NaN,11.2,NaN,4.9,NaN,NaN, NaN,NaN,143.0,NaN,NaN,NaN,2,1.2,002379,   NaN,57.0,     NaN,      NaN,NaN,0.7,NaN,16.781, NaN,NaN,NaN, NaN, NaN
20040715,004011,183867,31.176500,-120.924167,NaN,16.770,32.939,42.310,  NaN,0.0, NaN, NaN, NaN, NaN,23.987,391.335,16.40,1015.34,86.70,NaN,325.0,NaN,6.4,NaN,7.0,NaN,5.9,NaN,NaN, NaN,NaN,138.0,NaN,NaN,NaN,2,1.1,002409,   NaN,45.4,     NaN,      NaN,NaN,0.4,NaN,16.774, NaN,NaN,NaN, NaN, NaN